{"data":{"norad_id":47789,"epoch":"2026-05-24T23:42:47.335968Z","epoch_age_seconds":73257,"freshness":"FRESH","line1":"1 47789U 21018C   26144.98804787  .00003233  00000+0  11587-3 0  9990","line2":"2 47789  53.1616 244.4432 0000418 237.8426 122.2535 15.31699939288459","mean_motion":15.31699939,"eccentricity":4.18e-5,"inclination_deg":53.1616,"raan_deg":244.4432,"arg_perigee_deg":237.8426,"mean_anomaly_deg":122.2535,"bstar":0.00011587,"rev_number":28845,"period_min":94.013191705167,"perigee_km":470.45389399748,"apogee_km":471.02646012948,"semimajor_km":6848.8771770635,"source":"CELESTRAK","updated_at":"2026-05-25T13:38:16.597724Z"}}